Regional Weather Roundup
Issued by NWS

Home | Current Version | Previous Version | Text Only | Print | Product List | Glossary Off
Versions: 1 2 3 4 5 6 7 8 9 10 11 12 13 14 15 16 17 18 19 20 21 22 23 24 25 26 27 28 29 30 31 32 33 34 35 36 37 38 39 40 41 42 43 44 45 46 47 48 49 50

000
ASUS45 KSLC 300510
RWRUT

UTAH REGIONAL WEATHER ROUNDUP
NATIONAL WEATHER SERVICE SALT LAKE CITY UT
1100 PM MDT TUE JUL 29 2014

UTZ001>011-023>025-300600-

NORTHERN UTAH

CITY           SKY/WX    TMP DP  RH WIND       PRES   REMARKS
HILL AFB       CLOUDY    66  59  77 NE2       30.20S
LOGAN          CLOUDY    68  61  78 NW8       30.19R
OGDEN          LGT RAIN  67  62  84 NE10      30.18R
PROVO AIRPORT  MOCLDY    66  59  77 E5        30.21S
SALT LAKE CITY CLOUDY    70  62  76 CALM      30.16R
VERNAL         CLOUDY    63  59  87 MISG      30.25R
WENDOVER       CLOUDY    72  57  60 W5        30.20R
HEBER CITY     RAIN      61  59  94 NE3       30.25R
WEST JORDAN    MOCLDY    70  64  83 CALM      30.20S

$$

UTZ012>022-026-027-300600-

SOUTHERN UTAH

CITY           SKY/WX    TMP DP  RH WIND       PRES   REMARKS
BRYCE CANYON   PTCLDY    55  53  93 CALM      30.38R
CEDAR CITY     MOCLDY    64  60  87 NE3       30.23R
MILFORD        PTCLDY    65  59  81 SW7       30.20R
MOAB/CYNLANDS  CLEAR     66  62  87 NE7       30.15S
PRICE          PTCLDY    64  54  69 CALM      30.26R
ST GEORGE      CLOUDY    90  54  29 NW3       30.01R
KANAB            N/A     73  54  49 N9        30.20R

$$

REGIONAL REPORTS     COLORADO/ARIZONA

CITY           SKY/WX    TMP DP  RH WIND       PRES   REMARKS
CRAIG, CO      CLOUDY    54  54 100 CALM      30.29S
GRAND JUNCTION CLOUDY    62  59  90 N3        30.21F
RIFLE          CLOUDY    60  56  86 E5        30.27F
MONTROSE       CLOUDY    62  57  83 E8        30.31R
CORTEZ         CLEAR     62  55  77 S7        30.25R
PAGE, AZ       PTCLDY    84  51  31 N6        30.11R
GRAND CANYON   PTCLDY    62  50  64 CALM      30.31R
KINGMAN        CLEAR     83  49  30 S10       30.06R
FLAGSTAFF      PTCLDY    68  46  45 CALM      30.35R

$$

REGIONAL REPORTS    NEVADA/IDAHO/WYOMING

CITY           SKY/WX    TMP DP  RH WIND       PRES   REMARKS
LAS VEGAS, NV  PTCLDY    95  51  22 SW8       29.91R HX  92
ELY            CLOUDY    58  58 100 NE3       30.33S
ELKO           CLOUDY    68  51  54 NW6       30.28R
POCATELLO, ID  CLEAR     65  56  72 CALM      30.23S
BURLEY         CLOUDY    67  55  65 N8        30.22R
EVANSTON, WY   CLOUDY    57  54  89 E14       30.34S
ROCK SPRINGS   CLOUDY    56  52  86 E10       30.35S

$$


USA.gov is the U.S. government's official web portal to all federal, state and local government web resources and services.